Other Public Products
Issued by NWS Charleston, SC

Current Version | Previous Version | Text Only | Print | Product List | Glossary Off
Versions: 1 2 3 4 5 6 7 8 9 10 11 12 13 14 15 16 17 18 19 20 21 22 23 24 25 26 27 28 29 30 31 32 33 34 35 36 37 38 39 40 41 42 43 44 45 46 47 48 49 50
091 FPUS82 KCHS 211127 OPUCHS TEST...KCHS/KSAV Gateway Observations...TEST National Weather Service Charleston SC 700 AM EDT SAT APR 21 2018 NOTE: "fair" indicates few or no clouds below 12,000 feet with no significant weather and/or obstructions to visibility. SCZ050-WAZ558-NCZ071-TXZ119-213-PAZ071-DCZ001-FLZ074-172-MI076- NYZ176-178-MAZ016-IL014-TNZ027-NJZ106-GAZ044-MD014-211200- ...Gateway Observations for Charleston International... CITY SKY/WX TMP DP RH WIND PRES REMARKS Chas Airport FAIR 47 43 86 NE7 30.34R Seattle MOCLDY 46 42 86 S13 30.22R Charlotte FAIR 41 31 67 N7 30.40R Dallas DFW MOCLDY 54 48 80 SE12 29.99F Dallas Love CLOUDY 56 47 71 SE14 30.02F Philladelphia FAIR 38 25 59 SW3 30.45S Wash National MOCLDY 42 27 55 E3 30.48R Baltimore MOCLDY 33 28 81 W3 30.46R Miami FAIR 73 67 81 E5 30.09R Detroit MOCLDY 36 27 69 CALM 30.48R Newark MOCLDY 41 24 51 NW8 30.41R Laguardia FAIR 42 26 53 NW12 30.40R J F K MOCLDY 40 26 57 NW10 30.41R WCI 33 Boston Logan FAIR 40 27 59 W12 30.30R WCI 33 Ft. Lauderdale FAIR 75 68 78 E7 30.08R Chicago O`Hare CLOUDY 42 22 44 CALM 30.43S Chicago Midway CLOUDY 44 20 38 CALM 30.44S Houston Bush CLOUDY 61 55 81 E9 30.00F Houston Hobby CLOUDY 66 63 90 E10 29.98F Nashville FAIR 40 33 76 CALM 30.31R Atlanta FAIR 47 36 65 E7 30.31R $$ GAZ044-118-TXZ119-213-NCZ071-DCZ001-MDZ014-506-PAZ021-071-NJZ106- NYZ176-178-MAZ106-OHZ011-021-055-MIZ076-KYZ091-ILZ014-INZ047- MNZ060-ONZ431-211200- ...Gateway Observations for Savannah International... CITY SKY/WX TMP DP RH WIND PRES REMARKS Savannah Arpt MOCLDY 54 47 77 N8 30.31R Atlanta FAIR 47 36 65 E7 30.31R Charlotte FAIR 41 31 67 N7 30.40R Dallas DFW MOCLDY 54 48 80 SE12 29.99F Houston Bush CLOUDY 61 55 81 E9 30.00F Wash National MOCLDY 42 27 55 E3 30.48R Wash Dulles FAIR 31 28 89 CALM 30.47R Baltimore MOCLDY 33 28 81 W3 30.46R Philadelphia FAIR 38 25 59 SW3 30.45S Newark MOCLDY 41 24 51 NW8 30.41R Laguardia FAIR 42 26 53 NW12 30.40R J F K MOCLDY 40 26 57 NW10 30.41R WCI 33 Boston FAIR 40 27 59 W12 30.30R WCI 33 Pittsburg FAIR 29 22 75 W3 30.45R Akron FAIR 30 20 66 CALM 30.46S Cleveland FAIR 30 23 75 CALM 30.50R Cincinnati FAIR 41 24 51 E9 30.41R Columbus FAIR 33 24 67 N5 30.46R WCI 29 Detroit MOCLDY 36 27 69 CALM 30.48R Chicago O`Hare CLOUDY 42 22 44 CALM 30.43S Minneapolis MOCLDY 39 28 64 NE5 30.42S WCI 36 Indianapolis MOCLDY 43 27 53 E7 30.42R Toronto Canada MOCLDY 34 21 60 VRB2 30.44R $$

USA.gov is the U.S. government's official web portal to all federal, state and local government web resources and services.